EW5168 Weather Reports


Display with metric or nautical units.
time (UTC)temp
F
wind
direction
speed
MPH
gust
MPH
rain 1hr
in
rain 24hr
in
rain mn
in
humidity
%
barometer
mb
20260510173911 83 153 2.0 11.0 0.00 0.00 0.00 21 1013.6
20260510173411 83 175 3.0 12.0 0.00 0.00 0.00 20 1013.6
20260510172910 83 121 4.0 12.0 0.00 0.00 0.00 21 1013.7
20260510172407 83 134 4.0 12.0 0.00 0.00 0.00 18 1013.7
20260510171907 82 189 4.0 12.0 0.00 0.00 0.00 16 1013.9
20260510171407 82 241 3.0 10.0 0.00 0.00 0.00 15 1013.9
20260510170907 82 204 2.0 6.0 0.00 0.00 0.00 13 1013.7
20260510170407 82 196 2.0 7.0 0.00 0.00 0.00 13 1013.7
20260510165910 81 127 2.0 7.0 0.00 0.00 0.00 9 1013.7
20260510165906 81 200 3.0 10.0 0.00 0.00 0.00 10 1013.9
20260510165510 81 168 3.0 10.0 0.00 0.00 0.00 10 1014.0
20260510165011 80 86 3.0 9.0 0.00 0.00 0.00 5 1014.0
20260510163910 80 104 3.0 11.0 0.00 0.00 0.00 5 1014.0
20260510163906 80 170 3.0 10.0 0.00 0.00 0.00 8 1014.0
20260510163512 80 181 3.0 11.0 0.00 0.00 0.00 4 1014.0
20260510162405 80 86 3.0 8.0 0.00 0.00 0.00 1 1013.9
20260510161902 79 102 2.0 8.0 0.00 0.00 0.00 1 1013.9
20260510161403 79 184 2.0 6.0 0.00 0.00 0.00 1 1014.0
20260510160903 79 89 3.0 10.0 0.00 0.00 0.00 1 1014.2
20260510160401 78 284 3.0 10.0 0.00 0.00 0.00 1 1014.2
20260510155901 78 86 3.0 9.0 0.00 0.00 0.00 1 1014.0
20260510155400 78 175 2.0 6.0 0.00 0.00 0.00 1 1014.1
20260510154901 78 82 2.0 6.0 0.00 0.00 0.00 1 1014.2
20260510154359 77 94 2.0 6.0 0.00 0.00 0.00 1 1014.4
20260510153859 77 111 2.0 6.0 0.00 0.00 0.00 1 1014.4
20260510153357 77 157 3.0 7.0 0.00 0.00 0.00 1 1014.3
20260510152859 76 105 2.0 7.0 0.00 0.00 0.00 1 1014.3
20260510152855 76 87 2.0 8.0 0.00 0.00 0.00 1 1014.4
20260510151854 76 163 3.0 8.0 0.00 0.00 0.00 1 1014.4
20260510151355 76 103 2.0 7.0 0.00 0.00 0.00 1 1014.3
20260510150855 76 262 2.0 7.0 0.00 0.00 0.00 1 1014.3
20260510150359 75 153 2.0 6.0 0.00 0.00 0.00 1 1014.4
20260510150355 75 228 2.0 6.0 0.00 0.00 0.00 1 1014.4
20260510145355 75 159 2.0 7.0 0.00 0.00 0.00 1 1014.3
20260510144858 74 174 2.0 5.0 0.00 0.00 0.00 1 1014.4
20260510144854 75 92 2.0 7.0 0.00 0.00 0.00 1 1014.4
20260510143855 74 132 2.0 7.0 0.00 0.00 0.00 1 1014.4
20260510143355 74 80 2.0 7.0 0.00 0.00 0.00 1 1014.3
20260510142855 74 96 2.0 7.0 0.00 0.00 0.00 1 1014.3
20260510142357 74 122 2.0 7.0 0.00 0.00 0.00 1 1014.3
20260510142353 74 95 2.0 7.0 0.00 0.00 0.00 1 1014.2
20260510141353 73 82 2.0 7.0 0.00 0.00 0.00 1 1014.4
20260510140852 73 150 2.0 4.0 0.00 0.00 0.00 1 1014.4
20260510140352 73 95 2.0 4.0 0.00 0.00 0.00 1 1014.4
20260510135852 73 91 2.0 7.0 0.00 0.00 0.00 1 1014.4
20260510135353 73 92 2.0 7.0 0.00 0.00 0.00 1 1014.3
20260510134853 72 90 2.0 6.0 0.00 0.00 0.00 1 1014.4
20260510134353 72 94 2.0 6.0 0.00 0.00 0.00 1 1014.3
20260510133850 71 90 2.0 4.0 0.00 0.00 0.00 1 1014.3
20260510133354 71 87 2.0 6.0 0.00 0.00 0.00 1 1014.2
20260510133350 71 76 2.0 5.0 0.00 0.00 0.00 1 1014.2
20260510132354 71 80 2.0 4.0 0.00 0.00 0.00 1 1013.9
20260510132350 71 84 2.0 6.0 0.00 0.00 0.00 1 1014.2
20260510131350 70 85 2.0 4.0 0.00 0.00 0.00 1 1013.7
20260510130849 70 86 1.0 4.0 0.00 0.00 0.00 1 1013.7
20260510130349 70 83 1.0 3.0 0.00 0.00 0.00 1 1013.7
20260510125852 69 83 1.0 4.0 0.00 0.00 0.00 1 1013.6
20260510125848 70 83 1.0 4.0 0.00 0.00 0.00 1 1013.7
20260510124852 69 74 2.0 4.0 0.00 0.00 0.00 1 1013.6
20260510124848 69 74 2.0 3.0 0.00 0.00 0.00 1 1013.6
20260510124453 69 74 2.0 4.0 0.00 0.00 0.00 1 1013.5
20260510123348 69 74 1.0 3.0 0.00 0.00 0.00 1 1013.4
20260510122848 69 73 1.0 2.0 0.00 0.00 0.00 1 1013.2
20260510122349 69 73 1.0 4.0 0.00 0.00 0.00 1 1013.0
20260510121847 69 73 2.0 4.0 0.00 0.00 0.00 1 1013.0
20260510121346 68 78 2.0 3.0 0.00 0.00 0.00 1 1012.9
20260510120846 69 75 1.0 3.0 0.00 0.00 0.00 1 1012.9
20260510120346 69 90 1.0 3.0 0.00 0.00 0.00 1 1012.8
20260510115845 69 86 1.0 3.0 0.00 0.00 0.00 1 1012.6
20260510115344 69 86 1.0 3.0 0.00 0.00 0.00 1 1012.5
20260510114844 69 86 1.0 3.0 0.00 0.00 0.00 1 1012.4
20260510114344 69 86 1.0 3.0 0.00 0.00 0.00 1 1012.4
20260510113846 69 122 0.0 2.0 0.00 0.00 0.00 1 1012.1
20260510113842 69 122 0.0 2.0 0.00 0.00 0.00 1 1012.2
20260510112838 69 122 0.0 1.0 0.00 0.00 0.00 1 1011.9
20260510112336 69 122 1.0 2.0 0.00 0.00 0.00 1 1011.9
20260510111837 69 122 1.0 2.0 0.00 0.00 0.00 1 1011.7
20260510111336 69 122 0.0 2.0 0.00 0.00 0.00 1 1011.5
20260510110834 69 155 0.0 2.0 0.00 0.00 0.00 1 1011.4
20260510110335 69 136 0.0 2.0 0.00 0.00 0.00 1 1011.3
20260510105834 69 181 0.0 2.0 0.00 0.00 0.00 1 1011.2
20260510105337 69 171 0.0 2.0 0.00 0.00 0.00 1 1011.0
20260510105333 69 191 0.0 2.0 0.00 0.00 0.00 1 1011.1
20260510104332 70 178 0.0 3.0 0.00 0.00 0.00 1 1010.9
20260510103832 70 178 0.0 3.0 0.00 0.00 0.00 1 1010.8
20260510103335 70 170 1.0 4.0 0.00 0.00 0.00 1 1010.7
20260510103331 70 126 1.0 5.0 0.00 0.00 0.00 1 1010.6
20260510102334 70 171 3.0 6.0 0.00 0.00 0.00 1 1010.4
20260510102329 70 191 2.0 5.0 0.00 0.00 0.00 1 1010.4
20260510101328 70 227 3.0 7.0 0.00 0.00 0.00 1 1010.3
20260510100828 70 161 3.0 7.0 0.00 0.00 0.00 1 1010.1
20260510100328 70 173 4.0 9.0 0.00 0.00 0.00 1 1010.1
20260510095830 70 173 2.0 7.0 0.00 0.00 0.00 1 1010.1
20260510095826 70 155 3.0 9.0 0.00 0.00 0.00 1 1010.0
20260510094826 70 166 2.0 7.0 0.00 0.00 0.00 1 1010.3
20260510094330 70 175 3.0 9.0 0.00 0.00 0.00 1 1010.2
20260510094326 70 177 3.0 9.0 0.00 0.00 0.00 1 1010.3
20260510093325 70 194 2.0 8.0 0.00 0.00 0.00 1 1010.2
20260510092826 70 155 2.0 8.0 0.00 0.00 0.00 1 1010.3
20260510092326 70 175 3.0 6.0 0.00 0.00 0.00 1 1010.3
20260510091826 70 194 3.0 9.0 0.00 0.00 0.00 1 1010.2
20260510091325 70 161 4.0 9.0 0.00 0.00 0.00 1 1010.1
20260510090826 70 172 4.0 9.0 0.00 0.00 0.00 1 1010.0
20260510090326 70 162 4.0 9.0 0.00 0.00 0.00 1 1010.0
20260510085830 71 207 3.0 8.0 0.00 0.00 0.00 1 1010.0
20260510085826 71 176 3.0 8.0 0.00 0.00 0.00 1 1010.0
20260510085431 71 155 3.0 9.0 0.00 0.00 0.00 1 1009.9
20260510084328 71 205 3.0 6.0 0.00 0.00 0.00 1 1009.9
20260510084324 71 180 3.0 9.0 0.00 0.00 0.00 1 1010.0
20260510083327 71 136 4.0 8.0 0.00 0.00 0.00 1 1009.8
20260510083323 71 188 3.0 8.0 0.00 0.00 0.00 1 1009.9
20260510082322 71 192 4.0 10.0 0.00 0.00 0.00 1 1009.6
20260510081822 71 202 4.0 10.0 0.00 0.00 0.00 1 1009.6
20260510081320 71 173 4.0 9.0 0.00 0.00 0.00 1 1009.6
20260510080820 71 206 4.0 9.0 0.00 0.00 0.00 1 1009.5
20260510080319 71 167 4.0 8.0 0.00 0.00 0.00 1 1009.5
20260510075820 71 186 4.0 10.0 0.00 0.00 0.00 1 1009.3
20260510075320 71 168 4.0 10.0 0.00 0.00 0.00 1 1009.3
20260510074818 71 180 4.0 8.0 0.00 0.00 0.00 1 1009.4
20260510074317 72 173 3.0 10.0 0.00 0.00 0.00 1 1009.4
20260510073819 72 145 4.0 10.0 0.00 0.00 0.00 1 1009.6
20260510073815 72 197 4.0 10.0 0.00 0.00 0.00 1 1009.5
20260510072820 72 203 5.0 14.0 0.00 0.00 0.00 1 1009.6
20260510072816 72 171 4.0 10.0 0.00 0.00 0.00 1 1009.6
20260510071816 72 148 5.0 14.0 0.00 0.00 0.00 1 1009.7
20260510071312 72 173 4.0 14.0 0.00 0.00 0.00 1 1009.8
20260510070809 72 172 3.0 8.0 0.00 0.00 0.00 1 1009.8
20260510070309 72 140 3.0 7.0 0.00 0.00 0.00 1 1009.9
20260510065808 72 175 3.0 7.0 0.00 0.00 0.00 1 1010.0
20260510065414 72 147 3.0 7.0 0.00 0.00 0.00 1 1010.0
20260510065313 72 161 3.0 8.0 0.00 0.00 0.00 1 1010.0
20260510065309 72 145 3.0 8.0 0.00 0.00 0.00 1 1010.1
20260510063807 72 157 3.0 7.0 0.00 0.00 0.00 1 1010.0
20260510063308 72 193 3.0 7.0 0.00 0.00 0.00 1 1009.9
20260510062807 73 189 3.0 7.0 0.00 0.00 0.00 1 1009.8
20260510062307 73 157 3.0 7.0 0.00 0.00 0.00 1 1009.8
20260510061810 73 153 3.0 9.0 0.00 0.00 0.00 1 1009.9
20260510061806 73 190 3.0 7.0 0.00 0.00 0.00 1 1009.9
20260510060803 74 168 3.0 9.0 0.00 0.00 0.00 1 1009.9
20260510060307 74 171 3.0 8.0 0.00 0.00 0.00 1 1009.9
20260510060303 74 175 3.0 8.0 0.00 0.00 0.00 1 1009.9
20260510055909 74 177 3.0 6.0 0.00 0.00 0.00 1 1009.8
20260510054804 75 161 3.0 7.0 0.00 0.00 0.00 1 1009.8
20260510054301 75 163 3.0 7.0 0.00 0.00 0.00 2 1009.9
20260510053801 75 179 3.0 9.0 0.00 0.00 0.00 1 1009.8
20260510053258 75 165 3.0 9.0 0.00 0.00 0.00 1 1009.8
20260510052759 75 143 4.0 9.0 0.00 0.00 0.00 1 1009.8
20260510052259 75 192 4.0 8.0 0.00 0.00 0.00 1 1009.8
20260510051759 75 151 3.0 8.0 0.00 0.00 0.00 1 1009.8
20260510051257 76 158 3.0 10.0 0.00 0.00 0.00 1 1009.9
20260510050756 76 224 3.0 10.0 0.00 0.00 0.00 1 1009.8
20260510050257 76 188 3.0 8.0 0.00 0.00 0.00 1 1009.9
20260510045801 76 197 3.0 8.0 0.00 0.00 0.00 1 1009.8
20260510045757 76 180 3.0 7.0 0.00 0.00 0.00 1 1009.9
20260510044756 76 204 3.0 8.0 0.00 0.00 0.00 1 1009.9
20260510044301 76 156 3.0 7.0 0.00 0.00 0.00 1 1009.9
20260510044257 76 158 3.0 8.0 0.00 0.00 0.00 1 1009.8
20260510043256 76 161 3.0 7.0 0.00 0.00 0.00 1 1009.9
20260510042755 76 177 3.0 9.0 0.00 0.00 0.00 1 1010.0
20260510042259 76 167 3.0 7.0 0.00 0.00 0.00 1 1010.0
20260510042255 76 144 3.0 9.0 0.00 0.00 0.00 1 1010.1
20260510041254 76 180 3.0 7.0 0.00 0.00 0.00 1 1010.0
20260510040755 76 152 2.0 6.0 0.00 0.00 0.00 1 1010.0
20260510040255 76 177 1.0 6.0 0.00 0.00 0.00 1 1010.0
20260510035900 76 156 1.0 4.0 0.00 0.00 0.00 1 1009.8
20260510035757 76 179 1.0 4.0 0.00 0.00 0.00 1 1010.0
20260510035753 76 165 1.0 4.0 0.00 0.00 0.00 1 1009.9
20260510034250 76 203 1.0 4.0 0.00 0.00 0.00 1 1009.8
20260510033751 76 170 1.0 4.0 0.00 0.00 0.00 1 1009.8
20260510033257 76 163 1.0 4.0 0.00 0.00 0.00 1 1009.8
20260510033253 76 158 1.0 3.0 0.00 0.00 0.00 1 1009.7
20260510032857 76 170 1.0 4.0 0.00 0.00 0.00 1 1009.7
20260510031751 77 176 1.0 3.0 0.00 0.00 0.00 1 1009.6
20260510031248 77 156 1.0 4.0 0.00 0.00 0.00 1 1009.6
20260510030752 77 160 1.0 2.0 0.00 0.00 0.00 5 1009.4
20260510030748 77 178 1.0 4.0 0.00 0.00 0.00 3 1009.5
20260510025752 78 182 1.0 3.0 0.00 0.00 0.00 10 1009.3
20260510025747 78 160 1.0 2.0 0.00 0.00 0.00 7 1009.3
20260510024747 78 214 1.0 3.0 0.00 0.00 0.00 12 1009.3
20260510024247 78 155 1.0 3.0 0.00 0.00 0.00 15 1009.1
20260510023747 79 190 1.0 3.0 0.00 0.00 0.00 18 1009.0
20260510023247 79 182 1.0 3.0 0.00 0.00 0.00 22 1008.9
20260510022746 79 194 2.0 4.0 0.00 0.00 0.00 26 1008.9
20260510022244 80 161 1.0 4.0 0.00 0.00 0.00 30 1008.9
20260510021744 80 167 1.0 3.0 0.00 0.00 0.00 34 1008.8
20260510021249 80 160 1.0 5.0 0.00 0.00 0.00 40 1008.6
20260510021244 80 180 1.0 3.0 0.00 0.00 0.00 38 1008.7
20260510020245 81 170 1.0 5.0 0.00 0.00 0.00 43 1008.6
20260510015745 81 165 1.0 4.0 0.00 0.00 0.00 45 1008.5
20260510015244 81 166 0.0 4.0 0.00 0.00 0.00 46 1008.4
20260510014742 82 171 1.0 2.0 0.00 0.00 0.00 47 1008.4
20260510014246 82 169 1.0 4.0 0.00 0.00 0.00 49 1008.2
20260510014242 82 171 1.0 4.0 0.00 0.00 0.00 48 1008.2
20260510013243 83 169 1.0 2.0 0.00 0.00 0.00 49 1008.1
20260510012740 83 160 1.0 2.0 0.00 0.00 0.00 49 1008.1
20260510012240 83 160 1.0 2.0 0.00 0.00 0.00 49 1008.0
20260510011740 84 163 1.0 2.0 0.00 0.00 0.00 49 1007.9
20260510011240 84 163 1.0 2.0 0.00 0.00 0.00 49 1007.9
20260510010741 85 162 0.0 2.0 0.00 0.00 0.00 48 1007.8
20260510010240 85 162 0.0 2.0 0.00 0.00 0.00 48 1007.8
20260510005740 86 162 0.0 2.0 0.00 0.00 0.00 48 1007.8
20260510005240 86 162 1.0 2.0 0.00 0.00 0.00 48 1007.7
20260510004740 86 162 1.0 2.0 0.00 0.00 0.00 47 1007.7
20260510004242 87 162 1.0 2.0 0.00 0.00 0.00 46 1007.8
20260510003744 87 162 1.0 4.0 0.00 0.00 0.00 46 1007.7
20260510003740 87 162 1.0 2.0 0.00 0.00 0.00 46 1007.7
20260510002740 87 148 1.0 4.0 0.00 0.00 0.00 46 1007.6
20260510002240 87 153 1.0 3.0 0.00 0.00 0.00 45 1007.6
20260510001741 88 153 1.0 2.0 0.00 0.00 0.00 45 1007.6
20260510001737 88 153 1.0 3.0 0.00 0.00 0.00 44 1007.6
20260510000736 88 190 1.0 3.0 0.00 0.00 0.00 44 1007.5
20260510000238 88 160 1.0 4.0 0.00 0.00 0.00 44 1007.5
20260510000234 88 160 1.0 4.0 0.00 0.00 0.00 44 1007.4
20260509235838 89 182 1.0 3.0 0.00 0.00 0.00 44 1007.4
20260509234730 89 182 1.0 4.0 0.00 0.00 0.00 43 1007.4
20260509234230 89 206 1.0 4.0 0.00 0.00 0.00 44 1007.5
20260509233730 89 183 2.0 5.0 0.00 0.00 0.00 43 1007.4
20260509233234 89 152 3.0 6.0 0.00 0.00 0.00 44 1007.3
20260509233230 89 205 2.0 6.0 0.00 0.00 0.00 43 1007.4
20260509232230 89 159 2.0 6.0 0.00 0.00 0.00 44 1007.3
20260509231729 89 164 1.0 6.0 0.00 0.00 0.00 44 1007.3
20260509231227 89 179 1.0 3.0 0.00 0.00 0.00 43 1007.3
20260509230726 89 200 1.0 5.0 0.00 0.00 0.00 43 1007.3
20260509230226 89 219 1.0 5.0 0.00 0.00 0.00 43 1007.3
20260509225726 89 187 2.0 6.0 0.00 0.00 0.00 43 1007.3
20260509225227 90 146 2.0 6.0 0.00 0.00 0.00 43 1007.3
20260509224727 90 167 1.0 5.0 0.00 0.00 0.00 43 1007.4
20260509224226 90 181 0.0 0.0 0.00 0.00 0.00 43 1007.3
20260509223724 90 181 1.0 4.0 0.00 0.00 0.00 42 1007.4
20260509223224 90 181 1.0 4.0 0.00 0.00 0.00 41 1007.4
20260509222724 90 257 0.0 2.0 0.00 0.00 0.00 42 1007.3
20260509222224 91 317 0.0 2.0 0.00 0.00 0.00 40 1007.4
20260509221723 91 309 0.0 2.0 0.00 0.00 0.00 40 1007.4
20260509221224 91 235 0.0 2.0 0.00 0.00 0.00 41 1007.4
20260509220723 91 235 1.0 2.0 0.00 0.00 0.00 40 1007.4
20260509220224 91 161 0.0 2.0 0.00 0.00 0.00 41 1007.4
20260509215728 92 161 0.0 1.0 0.00 0.00 0.00 40 1007.4
20260509215724 92 161 0.0 1.0 0.00 0.00 0.00 40 1007.4
20260509214722 92 312 0.0 2.0 0.00 0.00 0.00 40 1007.5
20260509214222 91 312 1.0 2.0 0.00 0.00 0.00 41 1007.5
20260509213726 91 326 0.0 1.0 0.00 0.00 0.00 40 1007.7
20260509213722 91 312 0.0 2.0 0.00 0.00 0.00 41 1007.6
20260509212722 91 326 0.0 1.0 0.00 0.00 0.00 42 1007.6
20260509212222 91 326 0.0 2.0 0.00 0.00 0.00 41 1007.7
20260509211721 91 326 0.0 3.0 0.00 0.00 0.00 41 1007.8
20260509211218 91 331 0.0 3.0 0.00 0.00 0.00 42 1007.8
20260509210721 90 170 0.0 3.0 0.00 0.00 0.00 41 1007.9
20260509210717 91 194 1.0 4.0 0.00 0.00 0.00 42 1007.9
20260509205716 91 180 1.0 4.0 0.00 0.00 0.00 41 1007.9
20260509205216 91 329 1.0 2.0 0.00 0.00 0.00 41 1008.1
20260509204716 91 195 0.0 2.0 0.00 0.00 0.00 40 1008.2
20260509204220 91 51 1.0 4.0 0.00 0.00 0.00 41 1008.3
20260509204216 92 325 1.0 4.0 0.00 0.00 0.00 40 1008.2
20260509203218 91 309 1.0 5.0 0.00 0.00 0.00 41 1008.4
20260509203214 91 184 1.0 5.0 0.00 0.00 0.00 42 1008.5
20260509202209 91 149 1.0 3.0 0.00 0.00 0.00 41 1008.5
20260509201710 91 289 1.0 3.0 0.00 0.00 0.00 40 1008.6
20260509201210 90 166 1.0 3.0 0.00 0.00 0.00 40 1008.6
20260509200708 90 314 1.0 2.0 0.00 0.00 0.00 40 1008.7
20260509200207 90 314 1.0 5.0 0.00 0.00 0.00 40 1008.8
20260509195705 90 346 1.0 5.0 0.00 0.00 0.00 40 1008.8
20260509195205 90 140 1.0 4.0 0.00 0.00 0.00 42 1008.8
20260509194704 90 9 1.0 4.0 0.00 0.00 0.00 40 1008.9
20260509194203 90 261 1.0 3.0 0.00 0.00 0.00 42 1008.9
20260509193707 90 339 1.0 3.0 0.00 0.00 0.00 39 1009.1
20260509193703 90 303 1.0 3.0 0.00 0.00 0.00 41 1009.0
20260509192703 91 66 1.0 3.0 0.00 0.00 0.00 39 1009.1
20260509192203 90 178 1.0 3.0 0.00 0.00 0.00 40 1009.3
20260509191704 89 46 1.0 3.0 0.00 0.00 0.00 40 1009.4
20260509191204 89 184 1.0 3.0 0.00 0.00 0.00 41 1009.5
20260509190704 89 321 1.0 3.0 0.00 0.00 0.00 40 1009.5
20260509190202 90 342 1.0 3.0 0.00 0.00 0.00 40 1009.6
20260509185706 88 64 1.0 3.0 0.00 0.00 0.00 41 1009.7
20260509185702 89 350 1.0 3.0 0.00 0.00 0.00 41 1009.6
20260509184659 89 333 1.0 3.0 0.00 0.00 0.00 39 1009.7
20260509184159 89 221 1.0 3.0 0.00 0.00 0.00 39 1009.8
20260509183700 89 316 1.0 2.0 0.00 0.00 0.00 40 1009.8
20260509183200 87 312 1.0 2.0 0.00 0.00 0.00 41 1009.9
20260509182658 87 224 1.0 3.0 0.00 0.00 0.00 40 1010.0
20260509182155 88 197 1.0 3.0 0.00 0.00 0.00 39 1010.1
20260509181655 89 315 1.0 3.0 0.00 0.00 0.00 39 1010.2
20260509181153 88 227 1.0 4.0 0.00 0.00 0.00 39 1010.1
20260509180657 87 211 1.0 3.0 0.00 0.00 0.00 39 1010.3
20260509180653 87 203 1.0 4.0 0.00 0.00 0.00 39 1010.2
20260509175659 87 319 1.0 4.0 0.00 0.00 0.00 38 1010.4
20260509175653 88 313 1.0 4.0 0.00 0.00 0.00 37 1010.3